Location: Newark
(50.9243°N, 2.7593°W)
Time: 12:52:44
(UTC+00:00)

Envisat - Visible Passes

Search period start: 28 January 2020 00:00
Search period end: 07 February 2020 00:00
Orbit: 764 x 766 km, 98.1° (Epoch: 28 January)

Date Brightness Start Highest point End Pass type
(mag) Time Alt. Az. Time Alt. Az. Time Alt. Az.
28 Jan 5.4 06:01:16 10° NE 06:05:30 26° E 06:09:43 10° SSE visible
28 Jan 5.4 19:00:39 10° SSW 19:04:47 25° W 19:08:57 10° NW visible
29 Jan 6.2 05:25:54 10° ENE 05:28:15 13° E 05:30:35 10° ESE visible
29 Jan 3.2 07:02:59 10° NNE 07:08:06 81° ESE 07:13:11 10° SSW visible
29 Jan 4.1 18:22:49 10° S 18:27:43 48° W 18:32:39 10° NNW visible
30 Jan 4.5 06:26:23 10° NNE 06:31:12 41° E 06:35:59 10° SSE visible
30 Jan 3.0 17:45:46 10° SSE 17:50:51 87° ENE 17:55:58 10° NNW visible
30 Jan 6.1 19:27:38 10° WSW 19:30:35 15° W 19:33:33 10° NW visible
31 Jan 5.7 05:50:14 10° NE 05:54:06 21° E 05:57:56 10° SE visible
31 Jan 5.0 18:48:57 10° SSW 18:53:23 30° W 18:57:51 10° NNW visible
01 Feb 6.5 05:15:58 10° ENE 05:16:46 10° E 05:17:34 10° E visible
01 Feb 3.5 06:51:42 10° NNE 06:56:48 67° ESE 07:01:51 10° S visible
01 Feb 3.7 18:11:22 10° S 18:16:23 59° W 18:21:26 10° NNW visible
02 Feb 4.9 06:15:12 10° NNE 06:19:50 34° E 06:24:25 10° SSE visible
02 Feb 3.0 17:34:31 10° SSE 17:39:35 72° ENE 17:44:40 10° N visible
02 Feb 5.8 19:15:36 10° SW 19:19:09 19° W 19:22:43 10° NW visible
03 Feb 6.0 05:39:18 10° NE 05:42:40 17° E 05:46:00 10° SE visible
03 Feb 4.7 18:37:20 10° SSW 18:42:00 36° W 18:46:42 10° NNW visible
04 Feb 3.9 06:40:27 10° NNE 06:45:28 54° E 06:50:26 10° S visible
04 Feb 3.3 18:00:00 10° S 18:05:03 72° WSW 18:10:10 10° NNW visible
04 Feb 6.4 19:43:24 10° WSW 19:45:01 11° W 19:46:38 10° WNW visible
05 Feb 5.3 06:04:04 10° NE 06:08:26 28° E 06:12:46 10° SSE visible
05 Feb 5.5 19:03:44 10° SW 19:07:43 23° W 19:11:44 10° NW visible
06 Feb 6.2 05:28:31 10° NE 05:31:12 14° E 05:33:53 10° ESE visible
06 Feb 3.1 07:05:52 10° NNE 07:11:00 87° ESE 07:16:06 10° SSW visible
06 Feb 4.3 18:25:47 10° S 18:30:38 44° W 18:35:31 10° NNW visible
